Flag for Canada Weather past 2 weeks in Thunder Bay, Ontario, Canada

Now
30 °F

Light snow. Low clouds.


Feels Like: 21 °F
Forecast: N/A
Wind: 12 mph from East

Location: Thunder Bay

Current Time: Mar 31, 2015 at 6:48:21 PM

Latest Report: Mar 31, 2015 at 6:00 PM


Visibility: 15 mi

Pressure: 29.98 "Hg

Humidity: 93%

Dew point: 28 °F

Location of Thunder BayLocation

Historic Weather in Thunder Bay — Graph

°F

Thunder Bay temperature yesterday

Maximum temperature yesterday: 43 °F (at 3:00 PM)
Minimum temperature yesterday: 27 °F (at 11:00 PM)
Average temperature yesterday: 34 °F

Past Weeks' High & Low Weather Summary

 TemperatureHumidityPressure
High45 °F (Mar 16, 5:00 PM)100% (Mar 25, 9:00 PM)30.46 "Hg (Mar 25, 9:00 PM)
Low1 °F (Mar 27, 7:00 AM)25% (Mar 17, 4:00 PM)29.41 "Hg (Mar 29, 3:00 PM)
Average26 °F66%30.09 "Hg
* Reported Mar 16 5:00 PM — Mar 31 5:00 PM, Thunder Bay, Weather by CustomWeather, © 2015

Note: Actual official high and low records may vary slightly from our data, if they occured in-between our weather recording intervals... More about our weather records

Advertising

Thunder Bay weather history for previous 24 hours

 ConditionsComfort  
Time TempWeatherWind HumidityBarometerVisibility
5:00 PM
Tue, Mar 31
30 °FLight snow. More clouds than sun.12 mph93%29.95 "Hg10 mi
4:00 PM30 °FLight snow. Mostly cloudy.12 mph93%29.93 "Hg8 mi
3:00 PM30 °FLight snow. Mostly cloudy.13 mph100%29.90 "Hg5 mi
2:00 PM30 °FLight snow. Low clouds.13 mph100%29.88 "Hg3 mi
1:00 PM30 °FLight snow. Low clouds.12 mph100%29.87 "Hg1 mi
12:00 PM28 °FLight snow. Low clouds.6 mph100%29.87 "Hg1 mi
11:00 AM28 °FLight snow. Low clouds.13 mph100%29.86 "Hg1 mi
10:00 AM28 °FLight snow. Ice fog.8 mph93%29.86 "Hg1 mi
9:00 AM27 °FLight snow. Overcast.5 mph93%29.87 "Hg5 mi
8:00 AM27 °FLight snow. Mostly cloudy.5 mph93%29.87 "Hg20 mi
7:00 AM27 °FMostly cloudy.No wind93%29.87 "Hg15 mi
6:00 AM25 °FOvercast.No wind100%29.87 "Hg15 mi
5:00 AM25 °FOvercast.No wind93%29.87 "Hg15 mi
4:00 AM23 °FOvercast.3 mph93%29.88 "Hg15 mi
3:00 AM21 °FPassing clouds.No wind100%29.90 "Hg15 mi
2:00 AM25 °FPassing clouds.2 mph93%29.90 "Hg15 mi
1:00 AM27 °FPassing clouds.3 mph93%29.92 "Hg15 mi
12:00 AM25 °FPassing clouds.5 mph100%29.93 "Hg15 mi
11:00 PM
Mon, Mar 30
27 °FPassing clouds.5 mph93%29.94 "Hg15 mi
10:00 PM28 °FPassing clouds.6 mph93%29.93 "Hg15 mi
9:00 PM28 °FPassing clouds.7 mph93%29.92 "Hg15 mi
8:00 PM32 °FScattered clouds.12 mph87%29.90 "Hg20 mi
7:00 PM36 °FPartly sunny.14 mph75%29.89 "Hg20 mi
6:00 PM41 °FBroken clouds.12 mph61%29.88 "Hg20 mi
Weather by CustomWeather, © 2015

See weather overviewHow to use our weather pages